Location: Caualo
(45.5667°N, 10.8667°E)
Time: 18:58:12
(UTC+00:00)

STARLINK-22 - Pass Details

Date: 07 June 2020
Orbit: 354 x 364 km, 53.0° (Epoch: 02 July)

Event Time Altitude Azimuth Distance (km) Brightness Sun altitude
Exits shadow 23:09:03 - 78° (ENE) 1,589 6.1 -21.6°
Enters shadow 00:07:48 -62° 239° (WSW) 11,673 10.3 -20.6°
Maximum altitude 00:41:12 53° 333° (NNW) 456 3.4 -18.9°
